Time,TemperatureF,DewpointF,PressureIn,WindDirection,WindDirectionDegrees,WindSpeedMPH,WindSpeedGustMPH,Humidity,HourlyPrecipIn,Conditions,Clouds,dailyrainin,SoftwareType,DateUTC
2013-05-22 00:00:00,57.8,57.2,29.71,NNW,335,0.0,0.0,98,0.00,,---,0.00,VWS V14.01,2013-05-22 04:00:00,
2013-05-22 00:01:00,57.8,57.2,29.71,NNW,335,0.0,0.0,98,0.00,,---,0.00,VWS V14.01,2013-05-22 04:01:00,
2013-05-22 00:02:00,57.8,57.2,29.71,NNW,335,0.0,0.0,98,0.00,,---,0.00,VWS V14.01,2013-05-22 04:02:00,
2013-05-22 00:07:00,57.8,57.2,29.72,NNW,335,0.0,0.0,98,0.00,,---,0.00,VWS V14.01,2013-05-22 04:07:00,
2013-05-22 00:10:00,57.6,57.0,29.72,NNW,335,0.0,0.0,98,0.00,,---,0.00,VWS V14.01,2013-05-22 04:10:00,
2013-05-22 00:12:00,57.6,57.0,29.72,NNW,335,0.0,0.0,98,0.00,,---,0.00,VWS V14.01,2013-05-22 04:12:00,
2013-05-22 00:17:00,57.6,57.0,29.72,NNW,335,0.0,0.0,98,0.00,,---,0.00,VWS V14.01,2013-05-22 04:17:00,
2013-05-22 00:20:00,57.6,57.0,29.72,NNW,335,0.0,0.0,98,0.00,,---,0.00,VWS V14.01,2013-05-22 04:20:00,
2013-05-22 00:22:00,57.6,57.0,29.72,NNW,335,0.0,0.0,98,0.00,,---,0.00,VWS V14.01,2013-05-22 04:22:00,
2013-05-22 00:27:00,57.6,57.0,29.72,NNW,335,0.0,0.0,98,0.00,,---,0.00,VWS V14.01,2013-05-22 04:27:00,
2013-05-22 00:30:00,57.6,57.0,29.72,NNW,335,0.0,0.0,98,0.00,,---,0.00,VWS V14.01,2013-05-22 04:30:00,
2013-05-22 00:32:00,57.8,57.2,29.72,NNW,335,0.0,0.0,98,0.00,,---,0.00,VWS V14.01,2013-05-22 04:32:00,
2013-05-22 00:37:00,57.8,57.2,29.72,NNW,335,0.0,0.0,98,0.00,,---,0.00,VWS V14.01,2013-05-22 04:37:00,
2013-05-22 00:40:00,57.8,57.2,29.72,NNW,335,0.0,0.0,98,0.00,,---,0.00,VWS V14.01,2013-05-22 04:40:00,
2013-05-22 00:42:00,57.8,57.2,29.72,NNW,335,0.0,0.0,98,0.00,,---,0.00,VWS V14.01,2013-05-22 04:42:00,
2013-05-22 00:48:00,57.8,57.2,29.72,NNW,335,0.0,0.0,98,0.00,,---,0.00,VWS V14.01,2013-05-22 04:48:00,
2013-05-22 00:50:00,57.8,57.2,29.72,NNW,335,0.0,0.0,98,0.00,,---,0.00,VWS V14.01,2013-05-22 04:50:00,
2013-05-22 00:53:00,57.8,57.2,29.71,NNW,335,0.0,0.0,98,0.00,,---,0.00,VWS V14.01,2013-05-22 04:53:00,
2013-05-22 00:58:00,57.8,57.2,29.71,NNW,338,0.0,0.0,98,0.00,,---,0.00,VWS V14.01,2013-05-22 04:58:00,
2013-05-22 01:00:00,57.6,57.0,29.71,NNW,338,0.0,0.0,98,0.00,,---,0.00,VWS V14.01,2013-05-22 05:00:00,
2013-05-22 01:03:00,57.5,56.9,29.71,NNW,338,0.0,0.0,98,0.00,,---,0.00,VWS V14.01,2013-05-22 05:03:00,
2013-05-22 01:10:00,57.6,57.0,29.71,NNW,338,0.0,0.0,98,0.00,,---,0.00,VWS V14.01,2013-05-22 05:10:00,
2013-05-22 01:13:00,57.6,57.0,29.72,NNW,338,0.0,0.0,98,0.00,,---,0.00,VWS V14.01,2013-05-22 05:13:00,
2013-05-22 01:18:00,57.6,57.0,29.72,NNW,338,0.0,0.0,98,0.00,,---,0.00,VWS V14.01,2013-05-22 05:18:00,
2013-05-22 01:20:00,57.6,57.0,29.72,NNW,338,0.0,0.0,98,0.00,,---,0.00,VWS V14.01,2013-05-22 05:20:00,
2013-05-22 01:23:00,57.6,57.0,29.72,NNW,338,0.0,0.0,98,0.00,,---,0.00,VWS V14.01,2013-05-22 05:23:00,
2013-05-22 01:28:00,57.6,57.0,29.72,NNW,338,0.0,0.0,98,0.00,,---,0.00,VWS V14.01,2013-05-22 05:28:00,
2013-05-22 01:30:00,57.8,57.2,29.72,NNW,338,0.0,0.0,98,0.00,,---,0.00,VWS V14.01,2013-05-22 05:30:00,
2013-05-22 01:33:00,57.8,57.2,29.71,NNW,338,0.0,0.0,98,0.00,,---,0.00,VWS V14.01,2013-05-22 05:33:00,
2013-05-22 01:38:00,57.8,57.5,29.71,NNW,338,0.0,0.0,99,0.00,,---,0.00,VWS V14.01,2013-05-22 05:38:00,
2013-05-22 01:40:00,57.8,57.5,29.71,NNW,338,0.0,0.0,99,0.00,,---,0.00,VWS V14.01,2013-05-22 05:40:00,
2013-05-22 01:43:00,57.8,57.5,29.71,NNW,338,0.0,0.0,99,0.00,,---,0.00,VWS V14.01,2013-05-22 05:43:00,
2013-05-22 01:48:00,57.8,57.5,29.71,NNW,338,0.0,0.0,99,0.00,,---,0.00,VWS V14.01,2013-05-22 05:48:00,
2013-05-22 01:50:00,57.8,57.5,29.71,NNW,338,0.0,0.0,99,0.00,,---,0.00,VWS V14.01,2013-05-22 05:50:00,
2013-05-22 01:53:00,57.8,57.5,29.71,NNW,338,0.0,0.0,99,0.00,,---,0.00,VWS V14.01,2013-05-22 05:53:00,
2013-05-22 01:58:00,57.8,57.5,29.71,NNW,338,0.0,0.0,99,0.00,,---,0.00,VWS V14.01,2013-05-22 05:58:00,
2013-05-22 02:00:00,58.0,57.7,29.71,NNW,338,0.0,0.0,99,0.00,,---,0.00,VWS V14.01,2013-05-22 06:00:00,
2013-05-22 02:03:00,58.0,57.7,29.71,NNW,338,0.0,0.0,99,0.00,,---,0.00,VWS V14.01,2013-05-22 06:03:00,
2013-05-22 02:08:00,58.0,57.7,29.72,NNW,338,0.0,0.0,99,0.01,,---,0.01,VWS V14.01,2013-05-22 06:08:00,
2013-05-22 02:10:00,58.0,57.7,29.72,NNW,338,0.0,0.0,99,0.01,,---,0.01,VWS V14.01,2013-05-22 06:10:00,
2013-05-22 02:13:00,58.0,57.7,29.72,NNW,338,0.0,0.0,99,0.01,,---,0.01,VWS V14.01,2013-05-22 06:13:00,
2013-05-22 02:18:00,58.0,57.7,29.72,NNW,338,0.0,0.0,99,0.01,,---,0.01,VWS V14.01,2013-05-22 06:18:00,
2013-05-22 02:20:00,58.0,57.7,29.72,NNW,338,0.0,0.0,99,0.01,,---,0.01,VWS V14.01,2013-05-22 06:20:00,
2013-05-22 02:23:00,58.0,57.7,29.72,NNW,338,0.0,0.0,99,0.01,,---,0.01,VWS V14.01,2013-05-22 06:23:00,
2013-05-22 02:28:00,58.0,57.7,29.72,NNW,338,0.0,0.0,99,0.01,,---,0.01,VWS V14.01,2013-05-22 06:28:00,
2013-05-22 02:30:00,58.0,57.7,29.72,NNW,338,0.0,0.0,99,0.01,,---,0.01,VWS V14.01,2013-05-22 06:30:00,
2013-05-22 02:33:00,58.0,57.7,29.72,NNW,338,0.0,0.0,99,0.01,,---,0.01,VWS V14.01,2013-05-22 06:33:00,
2013-05-22 02:38:00,58.0,57.7,29.71,NNW,338,0.0,0.0,99,0.01,,---,0.01,VWS V14.01,2013-05-22 06:38:00,
2013-05-22 02:40:00,58.0,57.7,29.71,NNW,338,0.0,0.0,99,0.01,,---,0.01,VWS V14.01,2013-05-22 06:40:00,
2013-05-22 02:43:00,58.0,57.7,29.71,NNW,338,0.0,0.0,99,0.01,,---,0.01,VWS V14.01,2013-05-22 06:43:00,
2013-05-22 02:48:00,58.0,57.7,29.71,NNW,338,0.0,0.0,99,0.01,,---,0.01,VWS V14.01,2013-05-22 06:48:00,
2013-05-22 02:50:00,58.0,57.7,29.71,NNW,338,0.0,0.0,99,0.01,,---,0.01,VWS V14.01,2013-05-22 06:50:00,
2013-05-22 02:53:00,58.0,57.7,29.71,NNW,338,0.0,0.0,99,0.01,,---,0.01,VWS V14.01,2013-05-22 06:53:00,
2013-05-22 02:58:00,58.0,57.7,29.71,NNW,338,0.0,0.0,99,0.01,,---,0.01,VWS V14.01,2013-05-22 06:58:00,
2013-05-22 03:00:00,58.0,57.7,29.71,NNW,338,0.0,0.0,99,0.01,,---,0.01,VWS V14.01,2013-05-22 07:00:00,
2013-05-22 03:03:00,58.0,57.7,29.71,NNW,338,0.0,0.0,99,0.01,,---,0.01,VWS V14.01,2013-05-22 07:03:00,
2013-05-22 03:08:00,58.0,57.7,29.71,NNW,338,0.0,0.0,99,0.01,,---,0.01,VWS V14.01,2013-05-22 07:08:00,
2013-05-22 03:10:00,58.0,57.7,29.71,NNW,338,0.0,0.0,99,0.01,,---,0.01,VWS V14.01,2013-05-22 07:10:00,
2013-05-22 03:13:00,58.0,57.7,29.71,NNW,338,0.0,0.0,99,0.00,,---,0.01,VWS V14.01,2013-05-22 07:13:00,
2013-05-22 03:18:00,57.8,57.5,29.71,NNW,338,0.0,0.0,99,0.00,,---,0.01,VWS V14.01,2013-05-22 07:18:00,
2013-05-22 03:20:00,57.8,57.5,29.71,NNW,338,0.0,0.0,99,0.00,,---,0.01,VWS V14.01,2013-05-22 07:20:00,
2013-05-22 03:23:00,57.8,57.5,29.71,NNW,338,0.0,0.0,99,0.00,,---,0.01,VWS V14.01,2013-05-22 07:23:00,
2013-05-22 03:28:00,57.6,57.3,29.71,NNW,338,0.0,0.0,99,0.00,,---,0.01,VWS V14.01,2013-05-22 07:28:00,
2013-05-22 03:30:00,57.6,57.3,29.71,NNW,338,0.0,0.0,99,0.00,,---,0.01,VWS V14.01,2013-05-22 07:30:00,
2013-05-22 03:33:00,57.6,57.3,29.71,NNW,338,0.0,0.0,99,0.00,,---,0.01,VWS V14.01,2013-05-22 07:33:00,
2013-05-22 03:39:00,57.5,57.2,29.70,NNW,338,0.0,0.0,99,0.00,,---,0.01,VWS V14.01,2013-05-22 07:39:00,
2013-05-22 03:40:00,57.5,57.2,29.71,NNW,338,0.0,0.0,99,0.00,,---,0.01,VWS V14.01,2013-05-22 07:40:00,
2013-05-22 03:44:00,57.3,57.0,29.71,NNW,338,0.0,0.0,99,0.00,,---,0.01,VWS V14.01,2013-05-22 07:44:00,
2013-05-22 03:49:00,57.3,57.0,29.71,NNW,338,0.0,0.0,99,0.00,,---,0.01,VWS V14.01,2013-05-22 07:49:00,
2013-05-22 03:50:00,57.3,57.0,29.71,NNW,338,0.0,0.0,99,0.00,,---,0.01,VWS V14.01,2013-05-22 07:50:00,
2013-05-22 03:54:00,57.2,56.9,29.70,NNW,338,0.0,0.0,99,0.00,,---,0.01,VWS V14.01,2013-05-22 07:54:00,
2013-05-22 03:59:00,57.0,56.7,29.70,NNW,338,0.0,0.0,99,0.00,,---,0.01,VWS V14.01,2013-05-22 07:59:00,
2013-05-22 04:00:00,57.0,56.7,29.70,NNW,338,0.0,0.0,99,0.00,,---,0.01,VWS V14.01,2013-05-22 08:00:00,
2013-05-22 04:04:00,57.0,56.7,29.71,NNW,338,0.0,0.0,99,0.00,,---,0.01,VWS V14.01,2013-05-22 08:04:00,
2013-05-22 04:09:00,56.9,56.6,29.71,NNW,338,0.0,0.0,99,0.00,,---,0.01,VWS V14.01,2013-05-22 08:09:00,
2013-05-22 04:10:00,56.9,56.6,29.71,NNW,338,0.0,0.0,99,0.00,,---,0.01,VWS V14.01,2013-05-22 08:10:00,
2013-05-22 04:14:00,56.9,56.6,29.71,NNW,338,0.0,0.0,99,0.00,,---,0.01,VWS V14.01,2013-05-22 08:14:00,
2013-05-22 04:19:00,56.9,56.6,29.71,NNW,338,0.0,0.0,99,0.00,,---,0.01,VWS V14.01,2013-05-22 08:19:00,
2013-05-22 04:20:00,56.9,56.6,29.71,NNW,338,0.0,0.0,99,0.00,,---,0.01,VWS V14.01,2013-05-22 08:20:00,
2013-05-22 04:24:00,56.9,56.6,29.71,NNW,338,0.0,0.0,99,0.00,,---,0.01,VWS V14.01,2013-05-22 08:24:00,
2013-05-22 04:29:00,56.9,56.6,29.71,NNW,338,0.0,0.0,99,0.00,,---,0.01,VWS V14.01,2013-05-22 08:29:00,
2013-05-22 04:30:00,56.9,56.6,29.71,NNW,338,0.0,0.0,99,0.00,,---,0.01,VWS V14.01,2013-05-22 08:30:00,
2013-05-22 04:34:00,57.0,56.7,29.71,NNW,338,0.0,0.0,99,0.00,,---,0.01,VWS V14.01,2013-05-22 08:34:00,
2013-05-22 04:39:00,56.9,56.6,29.71,NNW,338,0.0,0.0,99,0.00,,---,0.01,VWS V14.01,2013-05-22 08:39:00,
2013-05-22 04:40:00,56.9,56.6,29.71,NNW,338,0.0,0.0,99,0.00,,---,0.01,VWS V14.01,2013-05-22 08:40:00,
2013-05-22 04:44:00,56.9,56.6,29.71,NNW,338,0.0,0.0,99,0.00,,---,0.01,VWS V14.01,2013-05-22 08:44:00,
2013-05-22 04:49:00,56.9,56.6,29.71,NNW,338,0.0,0.0,99,0.00,,---,0.01,VWS V14.01,2013-05-22 08:49:00,
2013-05-22 04:50:00,56.9,56.6,29.71,NNW,338,0.0,0.0,99,0.00,,---,0.01,VWS V14.01,2013-05-22 08:50:00,
2013-05-22 04:54:00,56.7,56.4,29.70,NNW,338,0.0,0.0,99,0.00,,---,0.01,VWS V14.01,2013-05-22 08:54:00,
2013-05-22 04:59:00,56.6,56.3,29.71,NNW,338,0.0,0.0,99,0.00,,---,0.01,VWS V14.01,2013-05-22 08:59:00,
2013-05-22 05:00:00,56.5,56.2,29.71,NNW,338,0.0,0.0,99,0.00,,---,0.01,VWS V14.01,2013-05-22 09:00:00,
2013-05-22 05:04:00,56.5,56.2,29.70,NNW,338,0.0,0.0,99,0.00,,---,0.01,VWS V14.01,2013-05-22 09:04:00,
2013-05-22 05:09:00,56.3,56.0,29.70,NNW,338,0.0,0.0,99,0.00,,---,0.01,VWS V14.01,2013-05-22 09:09:00,
2013-05-22 05:10:00,56.3,56.0,29.70,NNW,338,0.0,0.0,99,0.00,,---,0.01,VWS V14.01,2013-05-22 09:10:00,
2013-05-22 05:14:00,56.3,56.0,29.70,NNW,338,0.0,0.0,99,0.00,,---,0.01,VWS V14.01,2013-05-22 09:14:00,
2013-05-22 05:19:00,56.2,55.9,29.70,NNW,338,0.0,0.0,99,0.00,,---,0.01,VWS V14.01,2013-05-22 09:19:00,
2013-05-22 05:20:00,56.2,55.9,29.70,NNW,338,0.0,0.0,99,0.00,,---,0.01,VWS V14.01,2013-05-22 09:20:00,
2013-05-22 05:24:00,56.2,55.9,29.70,NNW,338,0.0,0.0,99,0.00,,---,0.01,VWS V14.01,2013-05-22 09:24:00,
2013-05-22 05:29:00,56.0,55.7,29.70,NNW,338,0.0,0.0,99,0.00,,---,0.01,VWS V14.01,2013-05-22 09:29:00,
2013-05-22 05:30:00,56.0,55.7,29.70,NNW,338,0.0,0.0,99,0.00,,---,0.01,VWS V14.01,2013-05-22 09:30:00,
2013-05-22 05:34:00,56.0,55.7,29.70,NNW,338,0.0,0.0,99,0.00,,---,0.01,VWS V14.01,2013-05-22 09:34:00,
2013-05-22 05:39:00,56.0,55.7,29.70,NNW,338,0.0,0.0,99,0.00,,---,0.01,VWS V14.01,2013-05-22 09:39:00,
2013-05-22 05:40:00,56.0,55.7,29.70,NNW,338,0.0,0.0,99,0.00,,---,0.01,VWS V14.01,2013-05-22 09:40:00,
2013-05-22 05:44:00,56.0,55.7,29.70,NNW,338,0.0,0.0,99,0.00,,---,0.01,VWS V14.01,2013-05-22 09:44:00,
2013-05-22 05:49:00,56.0,55.7,29.71,NNW,338,0.0,0.0,99,0.00,,---,0.01,VWS V14.01,2013-05-22 09:49:00,
2013-05-22 05:50:00,56.0,55.7,29.71,NNW,338,0.0,0.0,99,0.00,,---,0.01,VWS V14.01,2013-05-22 09:50:00,
2013-05-22 05:54:00,56.0,55.7,29.71,NNW,338,0.0,0.0,99,0.00,,---,0.01,VWS V14.01,2013-05-22 09:54:00,
2013-05-22 05:59:00,56.2,55.9,29.71,NNW,338,0.0,0.0,99,0.00,,---,0.01,VWS V14.01,2013-05-22 09:59:00,
2013-05-22 06:00:00,56.2,55.9,29.71,NNW,338,0.0,0.0,99,0.00,,---,0.01,VWS V14.01,2013-05-22 10:00:00,
2013-05-22 06:04:00,56.3,56.0,29.71,NNW,338,0.0,0.0,99,0.00,,---,0.01,VWS V14.01,2013-05-22 10:04:00,
2013-05-22 06:09:00,56.5,56.2,29.70,NNW,338,0.0,0.0,99,0.00,,---,0.01,VWS V14.01,2013-05-22 10:09:00,
2013-05-22 06:10:00,56.5,56.2,29.70,NNW,338,0.0,0.0,99,0.00,,---,0.01,VWS V14.01,2013-05-22 10:10:00,
2013-05-22 06:15:00,56.5,56.2,29.71,NNW,338,0.0,0.0,99,0.01,,---,0.02,VWS V14.01,2013-05-22 10:15:00,
2013-05-22 06:20:00,56.5,56.2,29.70,NNW,338,0.0,0.0,99,0.01,,---,0.02,VWS V14.01,2013-05-22 10:20:00,
2013-05-22 06:25:00,56.5,56.2,29.70,NNW,338,0.0,0.0,99,0.01,,---,0.02,VWS V14.01,2013-05-22 10:25:00,
2013-05-22 06:30:00,56.5,56.2,29.71,NNW,338,0.0,0.0,99,0.01,,---,0.02,VWS V14.01,2013-05-22 10:30:00,
2013-05-22 06:35:00,56.3,56.0,29.71,NNW,338,0.0,0.0,99,0.01,,---,0.02,VWS V14.01,2013-05-22 10:35:00,
2013-05-22 06:40:00,56.3,56.0,29.71,NNW,338,0.0,0.0,99,0.01,,---,0.02,VWS V14.01,2013-05-22 10:40:00,
2013-05-22 06:45:00,56.3,56.0,29.71,NNW,338,0.0,0.0,99,0.01,,---,0.02,VWS V14.01,2013-05-22 10:45:00,
2013-05-22 06:50:00,56.3,56.0,29.72,NNW,338,0.0,0.0,99,0.01,,---,0.02,VWS V14.01,2013-05-22 10:50:00,
2013-05-22 06:55:00,56.3,56.0,29.72,NNW,338,0.0,0.0,99,0.01,,---,0.02,VWS V14.01,2013-05-22 10:55:00,
2013-05-22 07:00:00,56.3,56.0,29.72,NNW,338,0.0,0.0,99,0.01,,---,0.02,VWS V14.01,2013-05-22 11:00:00,
2013-05-22 07:05:00,56.3,56.0,29.72,NNW,338,0.0,0.0,99,0.01,,---,0.02,VWS V14.01,2013-05-22 11:05:00,
2013-05-22 07:10:00,56.3,56.0,29.72,NNW,338,0.0,0.0,99,0.01,,---,0.02,VWS V14.01,2013-05-22 11:10:00,
2013-05-22 07:15:00,56.3,56.0,29.72,NNW,338,0.0,0.0,99,0.01,,---,0.02,VWS V14.01,2013-05-22 11:15:00,
2013-05-22 07:20:00,56.5,56.2,29.72,NNW,338,0.0,0.0,99,0.00,,---,0.02,VWS V14.01,2013-05-22 11:20:00,
2013-05-22 07:25:00,56.5,56.2,29.73,NNW,338,0.0,0.0,99,0.00,,---,0.02,VWS V14.01,2013-05-22 11:25:00,
2013-05-22 07:30:00,56.6,56.3,29.73,NNW,338,0.0,0.0,99,0.00,,---,0.02,VWS V14.01,2013-05-22 11:30:00,
2013-05-22 07:35:00,56.6,56.3,29.73,North,9,0.0,0.0,99,0.00,,---,0.02,VWS V14.01,2013-05-22 11:35:00,
2013-05-22 07:40:00,56.6,56.3,29.72,NE,38,0.0,0.0,99,0.00,,---,0.02,VWS V14.01,2013-05-22 11:40:00,
2013-05-22 07:45:00,56.6,56.3,29.72,NE,40,0.0,0.0,99,0.00,,---,0.02,VWS V14.01,2013-05-22 11:45:00,
2013-05-22 07:50:00,56.7,56.4,29.72,NE,40,0.0,0.0,99,0.00,,---,0.02,VWS V14.01,2013-05-22 11:50:00,
2013-05-22 07:55:00,56.7,56.4,29.72,NE,40,0.0,0.0,99,0.00,,---,0.02,VWS V14.01,2013-05-22 11:55:00,
2013-05-22 08:00:00,56.9,56.6,29.72,NE,40,0.0,0.0,99,0.00,,---,0.02,VWS V14.01,2013-05-22 12:00:00,
2013-05-22 08:05:00,56.9,56.6,29.73,NE,40,0.0,0.0,99,0.00,,---,0.02,VWS V14.01,2013-05-22 12:05:00,
2013-05-22 08:10:00,57.0,56.7,29.72,NE,40,0.0,0.0,99,0.00,,---,0.02,VWS V14.01,2013-05-22 12:10:00,
2013-05-22 08:15:00,57.0,56.7,29.72,NE,40,0.0,0.0,99,0.00,,---,0.02,VWS V14.01,2013-05-22 12:15:00,
2013-05-22 08:20:00,57.0,56.7,29.72,NE,40,0.0,0.0,99,0.00,,---,0.02,VWS V14.01,2013-05-22 12:20:00,
2013-05-22 08:25:00,57.0,56.7,29.72,NE,40,0.0,0.0,99,0.00,,---,0.02,VWS V14.01,2013-05-22 12:25:00,
2013-05-22 08:30:00,56.9,56.6,29.72,NE,40,0.0,0.0,99,0.00,,---,0.02,VWS V14.01,2013-05-22 12:30:00,
2013-05-22 08:35:00,57.0,56.7,29.72,NE,40,0.0,0.0,99,0.00,,---,0.02,VWS V14.01,2013-05-22 12:35:00,
2013-05-22 08:40:00,57.0,56.7,29.72,NE,46,0.0,0.0,99,0.00,,---,0.02,VWS V14.01,2013-05-22 12:40:00,
2013-05-22 08:45:00,57.0,56.7,29.72,NE,46,0.0,0.0,99,0.00,,---,0.02,VWS V14.01,2013-05-22 12:45:00,
2013-05-22 08:50:00,57.0,56.7,29.72,NE,46,0.0,0.0,99,0.00,,---,0.02,VWS V14.01,2013-05-22 12:50:00,
2013-05-22 08:55:00,57.0,56.7,29.72,NE,46,0.0,0.0,99,0.00,,---,0.02,VWS V14.01,2013-05-22 12:55:00,
2013-05-22 09:00:00,57.0,56.7,29.72,NE,46,0.0,0.0,99,0.00,,---,0.02,VWS V14.01,2013-05-22 13:00:00,
2013-05-22 09:05:00,57.2,56.9,29.72,NE,46,0.0,0.0,99,0.00,,---,0.02,VWS V14.01,2013-05-22 13:05:00,
2013-05-22 09:10:00,57.3,57.0,29.72,NE,46,0.0,0.0,99,0.00,,---,0.02,VWS V14.01,2013-05-22 13:10:00,
2013-05-22 09:16:00,57.3,57.0,29.72,NE,46,0.0,0.0,99,0.00,,---,0.02,VWS V14.01,2013-05-22 13:16:00,
2013-05-22 09:20:00,57.5,57.2,29.72,NE,46,0.0,0.0,99,0.00,,---,0.02,VWS V14.01,2013-05-22 13:20:00,
2013-05-22 09:21:00,57.5,57.2,29.72,NE,46,0.0,0.0,99,0.00,,---,0.02,VWS V14.01,2013-05-22 13:21:00,
2013-05-22 09:26:00,57.5,57.2,29.73,North,5,0.0,0.0,99,0.00,,---,0.02,VWS V14.01,2013-05-22 13:26:00,
2013-05-22 09:30:00,57.6,57.3,29.73,North,360,0.0,0.0,99,0.00,,---,0.02,VWS V14.01,2013-05-22 13:30:00,
2013-05-22 09:31:00,57.6,57.3,29.73,North,360,0.0,0.0,99,0.00,,---,0.02,VWS V14.01,2013-05-22 13:31:00,
2013-05-22 09:36:00,57.5,57.2,29.72,North,360,0.0,0.0,99,0.00,,---,0.02,VWS V14.01,2013-05-22 13:36:00,
2013-05-22 09:40:00,57.5,57.2,29.72,North,360,0.0,0.0,99,0.00,,---,0.02,VWS V14.01,2013-05-22 13:40:00,
2013-05-22 09:41:00,57.6,57.3,29.72,North,360,0.0,0.0,99,0.00,,---,0.02,VWS V14.01,2013-05-22 13:41:00,
2013-05-22 09:46:00,57.8,57.5,29.72,North,360,0.0,0.0,99,0.00,,---,0.02,VWS V14.01,2013-05-22 13:46:00,
2013-05-22 09:50:00,58.0,57.7,29.72,North,360,0.0,0.0,99,0.00,,---,0.02,VWS V14.01,2013-05-22 13:50:00,
2013-05-22 09:51:00,58.0,57.7,29.72,North,360,0.0,0.0,99,0.00,,---,0.02,VWS V14.01,2013-05-22 13:51:00,
2013-05-22 09:56:00,58.1,57.8,29.72,North,360,0.0,0.0,99,0.00,,---,0.02,VWS V14.01,2013-05-22 13:56:00,
2013-05-22 10:00:00,58.3,58.0,29.72,North,360,0.0,0.0,99,0.00,,---,0.02,VWS V14.01,2013-05-22 14:00:00,
2013-05-22 10:01:00,58.3,58.0,29.72,North,360,0.0,0.0,99,0.00,,---,0.02,VWS V14.01,2013-05-22 14:01:00,
2013-05-22 10:06:00,58.6,58.3,29.72,North,360,0.0,0.0,99,0.00,,---,0.02,VWS V14.01,2013-05-22 14:06:00,
2013-05-22 10:10:00,58.7,58.4,29.71,NE,36,0.0,0.0,99,0.00,,---,0.02,VWS V14.01,2013-05-22 14:10:00,
2013-05-22 10:11:00,58.7,58.4,29.71,NE,36,0.0,0.0,99,0.00,,---,0.02,VWS V14.01,2013-05-22 14:11:00,
2013-05-22 10:16:00,59.0,58.7,29.71,NE,36,0.0,0.0,99,0.00,,---,0.02,VWS V14.01,2013-05-22 14:16:00,
2013-05-22 10:20:00,59.2,58.9,29.71,NE,36,0.0,0.0,99,0.00,,---,0.02,VWS V14.01,2013-05-22 14:20:00,
2013-05-22 10:21:00,59.2,58.9,29.71,NE,36,0.0,0.0,99,0.00,,---,0.02,VWS V14.01,2013-05-22 14:21:00,
2013-05-22 10:26:00,59.5,59.2,29.71,NE,36,0.0,0.0,99,0.00,,---,0.02,VWS V14.01,2013-05-22 14:26:00,
2013-05-22 10:30:00,59.6,59.3,29.71,NE,36,0.0,0.0,99,0.00,,---,0.02,VWS V14.01,2013-05-22 14:30:00,
2013-05-22 10:31:00,59.6,59.3,29.72,NE,36,0.0,0.0,99,0.00,,---,0.02,VWS V14.01,2013-05-22 14:31:00,
2013-05-22 10:36:00,59.9,59.6,29.72,NE,36,0.0,0.0,99,0.00,,---,0.02,VWS V14.01,2013-05-22 14:36:00,
2013-05-22 10:40:00,60.2,59.9,29.71,NE,36,0.0,0.0,99,0.00,,---,0.02,VWS V14.01,2013-05-22 14:40:00,
2013-05-22 10:41:00,60.4,60.1,29.71,NE,36,0.0,0.0,99,0.00,,---,0.02,VWS V14.01,2013-05-22 14:41:00,
2013-05-22 10:46:00,60.7,60.4,29.71,NE,36,0.0,0.0,99,0.00,,---,0.02,VWS V14.01,2013-05-22 14:46:00,
2013-05-22 10:50:00,60.9,60.6,29.72,NE,36,0.0,0.0,99,0.00,,---,0.02,VWS V14.01,2013-05-22 14:50:00,
2013-05-22 10:51:00,61.0,60.7,29.72,NE,36,0.0,0.0,99,0.00,,---,0.02,VWS V14.01,2013-05-22 14:51:00,
2013-05-22 10:56:00,60.9,60.6,29.72,ENE,63,0.0,0.0,99,0.00,,---,0.02,VWS V14.01,2013-05-22 14:56:00,
2013-05-22 11:00:00,60.9,60.6,29.72,NE,46,0.0,0.0,99,0.00,,---,0.02,VWS V14.01,2013-05-22 15:00:00,
2013-05-22 11:01:00,60.9,60.6,29.72,NE,51,0.0,0.0,99,0.00,,---,0.02,VWS V14.01,2013-05-22 15:01:00,
2013-05-22 11:06:00,61.0,60.7,29.71,NE,47,0.0,0.0,99,0.01,,---,0.03,VWS V14.01,2013-05-22 15:06:00,
2013-05-22 11:10:00,61.2,60.9,29.71,NE,55,0.0,0.0,99,0.01,,---,0.03,VWS V14.01,2013-05-22 15:10:00,
2013-05-22 11:11:00,61.2,60.9,29.71,NE,43,0.0,0.0,99,0.01,,---,0.03,VWS V14.01,2013-05-22 15:11:00,
2013-05-22 11:16:00,61.2,60.9,29.71,ENE,69,0.0,0.0,99,0.01,,---,0.03,VWS V14.01,2013-05-22 15:16:00,
2013-05-22 11:20:00,61.0,60.7,29.71,ENE,76,0.0,0.0,99,0.01,,---,0.03,VWS V14.01,2013-05-22 15:20:00,
2013-05-22 11:21:00,61.0,60.7,29.71,East,83,0.0,0.0,99,0.01,,---,0.03,VWS V14.01,2013-05-22 15:21:00,
2013-05-22 11:26:00,61.5,61.2,29.71,ENE,71,0.0,0.0,99,0.01,,---,0.03,VWS V14.01,2013-05-22 15:26:00,
2013-05-22 11:30:00,61.3,61.0,29.71,ENE,57,0.0,0.0,99,0.01,,---,0.03,VWS V14.01,2013-05-22 15:30:00,
2013-05-22 11:31:00,61.3,61.0,29.71,East,80,0.0,0.0,99,0.01,,---,0.03,VWS V14.01,2013-05-22 15:31:00,
2013-05-22 11:36:00,61.2,60.6,29.71,East,88,0.0,0.0,98,0.01,,---,0.03,VWS V14.01,2013-05-22 15:36:00,
2013-05-22 11:40:00,61.3,60.7,29.71,ENE,77,0.0,0.0,98,0.01,,---,0.03,VWS V14.01,2013-05-22 15:40:00,
2013-05-22 11:41:00,61.5,60.9,29.71,ENE,66,0.0,0.0,98,0.01,,---,0.03,VWS V14.01,2013-05-22 15:41:00,
2013-05-22 11:46:00,61.5,60.9,29.71,NE,51,0.0,0.0,98,0.01,,---,0.03,VWS V14.01,2013-05-22 15:46:00,
2013-05-22 11:50:00,61.5,60.9,29.71,North,0,0.0,0.0,98,0.01,,---,0.03,VWS V14.01,2013-05-22 15:50:00,
2013-05-22 12:00:00,61.3,60.7,29.71,North,0,0.0,0.0,98,0.01,,---,0.03,VWS V14.01,2013-05-22 16:00:00,
2013-05-22 12:10:00,61.5,60.6,29.71,North,0,0.0,0.0,97,0.01,,---,0.03,VWS V14.01,2013-05-22 16:10:00,
2013-05-22 12:20:00,61.5,60.6,29.71,North,0,0.0,0.0,97,0.00,,---,0.03,VWS V14.01,2013-05-22 16:20:00,
2013-05-22 12:30:00,61.8,60.7,29.71,North,0,0.0,0.0,96,0.00,,---,0.03,VWS V14.01,2013-05-22 16:30:00,
2013-05-22 12:40:00,62.3,61.2,29.71,North,0,0.0,0.0,96,0.00,,---,0.03,VWS V14.01,2013-05-22 16:40:00,
2013-05-22 12:50:00,62.7,61.2,29.71,North,0,0.0,0.0,95,0.00,,---,0.03,VWS V14.01,2013-05-22 16:50:00,
2013-05-22 13:00:00,63.1,61.3,29.70,North,0,0.0,0.0,94,0.00,,---,0.03,VWS V14.01,2013-05-22 17:00:00,
2013-05-22 13:10:00,63.2,61.2,29.70,North,0,0.0,0.0,93,0.00,,---,0.03,VWS V14.01,2013-05-22 17:10:00,
2013-05-22 13:20:00,63.2,61.2,29.70,North,0,0.0,0.0,93,0.00,,---,0.03,VWS V14.01,2013-05-22 17:20:00,
2013-05-22 13:30:00,63.2,60.8,29.70,North,0,0.0,0.0,92,0.00,,---,0.03,VWS V14.01,2013-05-22 17:30:00,
2013-05-22 13:40:00,63.5,61.1,29.70,North,0,0.0,0.0,92,0.00,,---,0.03,VWS V14.01,2013-05-22 17:40:00,
2013-05-22 13:50:00,63.5,61.1,29.70,North,0,0.0,0.0,92,0.00,,---,0.03,VWS V14.01,2013-05-22 17:50:00,
2013-05-22 14:00:00,63.5,60.8,29.70,North,0,0.0,0.0,91,0.00,,---,0.03,VWS V14.01,2013-05-22 18:00:00,
2013-05-22 14:10:00,63.5,61.1,29.70,North,0,0.0,0.0,92,0.00,,---,0.03,VWS V14.01,2013-05-22 18:10:00,
2013-05-22 14:20:00,63.5,61.1,29.69,North,0,0.0,0.0,92,0.00,,---,0.03,VWS V14.01,2013-05-22 18:20:00,
2013-05-22 14:30:00,63.5,61.1,29.69,North,0,0.0,0.0,92,0.00,,---,0.03,VWS V14.01,2013-05-22 18:30:00,
2013-05-22 14:40:00,63.2,60.5,29.70,North,0,0.0,0.0,91,0.00,,---,0.03,VWS V14.01,2013-05-22 18:40:00,
2013-05-22 14:50:00,63.2,60.8,29.69,North,0,0.0,0.0,92,0.00,,---,0.03,VWS V14.01,2013-05-22 18:50:00,
2013-05-22 15:00:00,63.1,60.4,29.70,North,0,0.0,0.0,91,0.00,,---,0.03,VWS V14.01,2013-05-22 19:00:00,
2013-05-22 15:10:00,62.7,60.0,29.70,North,0,0.0,0.0,91,0.00,,---,0.03,VWS V14.01,2013-05-22 19:10:00,
2013-05-22 15:20:00,62.0,59.3,29.70,North,0,0.0,0.0,91,0.00,,---,0.03,VWS V14.01,2013-05-22 19:20:00,
2013-05-22 15:30:00,61.2,58.6,29.70,North,0,0.0,0.0,91,0.00,,---,0.03,VWS V14.01,2013-05-22 19:30:00,
2013-05-22 15:40:00,60.5,58.2,29.70,North,0,0.0,0.0,92,0.01,,---,0.04,VWS V14.01,2013-05-22 19:40:00,
2013-05-22 15:50:00,59.9,57.6,29.70,North,0,0.0,0.0,92,0.01,,---,0.04,VWS V14.01,2013-05-22 19:50:00,
2013-05-22 16:10:00,59.5,57.5,29.70,East,80,0.0,0.0,93,0.01,,---,0.04,VWS V14.01,2013-05-22 20:10:00,
2013-05-22 16:15:00,59.3,57.6,29.70,ENE,58,0.0,0.0,94,0.01,,---,0.04,VWS V14.01,2013-05-22 20:15:00,
2013-05-22 16:20:00,59.2,57.5,29.70,NE,46,0.0,0.0,94,0.01,,---,0.04,VWS V14.01,2013-05-22 20:20:00,
2013-05-22 16:25:00,59.2,57.8,29.70,NE,36,0.0,0.0,95,0.01,,---,0.04,VWS V14.01,2013-05-22 20:25:00,
2013-05-22 16:30:00,59.0,57.6,29.70,NE,49,0.0,0.0,95,0.01,,---,0.04,VWS V14.01,2013-05-22 20:30:00,
2013-05-22 16:35:00,59.0,57.6,29.70,NE,55,0.0,0.0,95,0.01,,---,0.04,VWS V14.01,2013-05-22 20:35:00,
2013-05-22 16:40:00,59.0,57.6,29.70,East,87,0.0,0.0,95,0.00,,---,0.04,VWS V14.01,2013-05-22 20:40:00,
2013-05-22 16:45:00,58.9,57.5,29.70,ENE,69,0.0,0.0,95,0.00,,---,0.04,VWS V14.01,2013-05-22 20:45:00,
2013-05-22 16:50:00,58.9,57.5,29.70,ENE,78,0.0,0.0,95,0.00,,---,0.04,VWS V14.01,2013-05-22 20:50:00,
2013-05-22 16:55:00,58.7,57.3,29.70,East,87,0.0,0.0,95,0.00,,---,0.04,VWS V14.01,2013-05-22 20:55:00,
2013-05-22 17:00:00,58.9,57.8,29.69,ENE,69,0.0,0.0,96,0.00,,---,0.04,VWS V14.01,2013-05-22 21:00:00,
2013-05-22 17:05:00,58.9,57.8,29.69,East,86,0.0,0.0,96,0.00,,---,0.04,VWS V14.01,2013-05-22 21:05:00,
2013-05-22 17:10:00,59.0,57.9,29.69,ENE,78,0.0,0.0,96,0.00,,---,0.04,VWS V14.01,2013-05-22 21:10:00,
2013-05-22 17:15:00,58.9,57.5,29.69,East,94,0.0,0.0,95,0.00,,---,0.04,VWS V14.01,2013-05-22 21:15:00,
2013-05-22 17:20:00,58.9,57.5,29.69,ENE,59,0.0,0.0,95,0.00,,---,0.04,VWS V14.01,2013-05-22 21:20:00,
2013-05-22 17:25:00,59.0,57.6,29.69,ENE,67,0.0,0.0,95,0.00,,---,0.04,VWS V14.01,2013-05-22 21:25:00,
2013-05-22 17:30:00,58.9,57.5,29.70,East,84,0.0,0.0,95,0.00,,---,0.04,VWS V14.01,2013-05-22 21:30:00,
2013-05-22 17:35:00,58.9,57.2,29.69,ESE,107,0.0,0.0,94,0.00,,---,0.04,VWS V14.01,2013-05-22 21:35:00,
2013-05-22 17:40:00,58.7,57.0,29.69,ENE,69,0.0,0.0,94,0.00,,---,0.04,VWS V14.01,2013-05-22 21:40:00,
2013-05-22 17:45:00,58.6,56.9,29.69,ENE,75,0.0,0.0,94,0.00,,---,0.04,VWS V14.01,2013-05-22 21:45:00,
2013-05-22 17:50:00,58.4,56.7,29.69,ENE,66,0.0,0.0,94,0.00,,---,0.04,VWS V14.01,2013-05-22 21:50:00,
2013-05-22 17:55:00,58.3,56.6,29.70,ESE,105,0.0,0.0,94,0.00,,---,0.04,VWS V14.01,2013-05-22 21:55:00,
2013-05-22 18:00:00,58.3,56.6,29.69,East,98,0.0,0.0,94,0.00,,---,0.04,VWS V14.01,2013-05-22 22:00:00,
2013-05-22 18:05:00,58.3,56.6,29.70,ENE,73,0.0,0.0,94,0.00,,---,0.04,VWS V14.01,2013-05-22 22:05:00,
2013-05-22 18:10:00,58.1,56.4,29.71,ENE,65,0.0,0.0,94,0.00,,---,0.04,VWS V14.01,2013-05-22 22:10:00,
2013-05-22 18:15:00,58.0,56.3,29.71,ENE,71,0.0,0.0,94,0.00,,---,0.04,VWS V14.01,2013-05-22 22:15:00,
2013-05-22 18:20:00,58.0,56.3,29.71,NE,53,0.0,0.0,94,0.00,,---,0.04,VWS V14.01,2013-05-22 22:20:00,
2013-05-22 18:25:00,57.8,56.1,29.72,ENE,71,0.0,0.0,94,0.00,,---,0.04,VWS V14.01,2013-05-22 22:25:00,
2013-05-22 18:30:00,57.8,56.1,29.72,ENE,58,0.0,0.0,94,0.00,,---,0.04,VWS V14.01,2013-05-22 22:30:00,
2013-05-22 18:35:00,57.6,55.9,29.72,NE,38,0.0,0.0,94,0.00,,---,0.04,VWS V14.01,2013-05-22 22:35:00,
2013-05-22 18:40:00,57.6,56.2,29.72,NE,53,0.0,0.0,95,0.00,,---,0.04,VWS V14.01,2013-05-22 22:40:00,
2013-05-22 18:45:00,57.3,55.9,29.72,ENE,66,0.0,0.0,95,0.00,,---,0.04,VWS V14.01,2013-05-22 22:45:00,
2013-05-22 18:50:00,57.2,55.8,29.72,ENE,61,0.0,0.0,95,0.00,,---,0.04,VWS V14.01,2013-05-22 22:50:00,
2013-05-22 18:55:00,57.0,55.6,29.72,East,84,0.0,0.0,95,0.00,,---,0.04,VWS V14.01,2013-05-22 22:55:00,
2013-05-22 19:00:00,56.9,55.5,29.72,East,79,0.0,0.0,95,0.00,,---,0.04,VWS V14.01,2013-05-22 23:00:00,
2013-05-22 19:06:00,56.7,55.3,29.73,ENE,77,0.0,0.0,95,0.00,,---,0.04,VWS V14.01,2013-05-22 23:06:00,
2013-05-22 19:11:00,56.6,55.2,29.73,East,88,0.0,0.0,95,0.00,,---,0.04,VWS V14.01,2013-05-22 23:11:00,
2013-05-22 19:16:00,56.6,55.2,29.73,East,94,0.0,0.0,95,0.00,,---,0.04,VWS V14.01,2013-05-22 23:16:00,
2013-05-22 19:21:00,56.3,54.9,29.73,NE,53,0.0,0.0,95,0.00,,---,0.04,VWS V14.01,2013-05-22 23:21:00,
2013-05-22 19:26:00,56.3,54.9,29.73,NE,49,0.0,0.0,95,0.00,,---,0.04,VWS V14.01,2013-05-22 23:26:00,
2013-05-22 19:31:00,56.2,54.8,29.73,ENE,68,0.0,0.0,95,0.00,,---,0.04,VWS V14.01,2013-05-22 23:31:00,
2013-05-22 19:36:00,56.0,54.6,29.73,ENE,74,0.0,0.0,95,0.00,,---,0.04,VWS V14.01,2013-05-22 23:36:00,
2013-05-22 19:41:00,56.0,54.6,29.73,ENE,64,0.0,0.0,95,0.00,,---,0.04,VWS V14.01,2013-05-22 23:41:00,
2013-05-22 19:46:00,56.0,54.6,29.73,ENE,60,0.0,0.0,95,0.00,,---,0.04,VWS V14.01,2013-05-22 23:46:00,
2013-05-22 19:51:00,55.9,54.5,29.73,ESE,109,0.0,0.0,95,0.00,,---,0.04,VWS V14.01,2013-05-22 23:51:00,
2013-05-22 19:56:00,55.9,54.8,29.73,ENE,63,0.0,0.0,96,0.00,,---,0.04,VWS V14.01,2013-05-22 23:56:00,
2013-05-22 20:01:00,55.9,54.8,29.73,ENE,70,0.0,0.0,96,0.00,,---,0.04,VWS V14.01,2013-05-23 00:01:00,
2013-05-22 20:06:00,55.9,54.8,29.73,ENE,67,0.0,0.0,96,0.00,,---,0.04,VWS V14.01,2013-05-23 00:06:00,
2013-05-22 20:11:00,55.9,54.8,29.73,ESE,103,0.0,0.0,96,0.00,,---,0.04,VWS V14.01,2013-05-23 00:11:00,
2013-05-22 20:16:00,55.9,54.8,29.74,ENE,65,0.0,0.0,96,0.00,,---,0.04,VWS V14.01,2013-05-23 00:16:00,
2013-05-22 20:21:00,55.9,54.8,29.74,ENE,63,0.0,0.0,96,0.00,,---,0.04,VWS V14.01,2013-05-23 00:21:00,
2013-05-22 20:26:00,55.7,54.6,29.73,ENE,67,0.0,0.0,96,0.00,,---,0.04,VWS V14.01,2013-05-23 00:26:00,
2013-05-22 20:31:00,55.7,54.6,29.73,ENE,68,0.0,0.0,96,0.00,,---,0.04,VWS V14.01,2013-05-23 00:31:00,
2013-05-22 20:36:00,55.7,54.6,29.74,ENE,66,0.0,0.0,96,0.00,,---,0.04,VWS V14.01,2013-05-23 00:36:00,
2013-05-22 20:41:00,55.7,54.6,29.74,NE,49,0.0,0.0,96,0.00,,---,0.04,VWS V14.01,2013-05-23 00:41:00,
2013-05-22 20:46:00,55.6,54.5,29.74,ENE,74,0.0,0.0,96,0.00,,---,0.04,VWS V14.01,2013-05-23 00:46:00,
2013-05-22 20:51:00,55.6,54.2,29.74,East,88,0.0,0.0,95,0.00,,---,0.04,VWS V14.01,2013-05-23 00:51:00,
2013-05-22 20:56:00,55.6,54.2,29.74,ENE,63,0.0,0.0,95,0.00,,---,0.04,VWS V14.01,2013-05-23 00:56:00,
2013-05-22 21:01:00,55.6,54.2,29.74,NNE,29,0.0,0.0,95,0.00,,---,0.04,VWS V14.01,2013-05-23 01:01:00,
2013-05-22 21:06:00,55.6,54.5,29.74,NE,44,0.0,0.0,96,0.00,,---,0.04,VWS V14.01,2013-05-23 01:06:00,
2013-05-22 21:11:00,55.6,54.5,29.74,NE,55,0.0,0.0,96,0.00,,---,0.04,VWS V14.01,2013-05-23 01:11:00,
2013-05-22 21:16:00,55.4,54.3,29.74,NE,50,0.0,0.0,96,0.00,,---,0.04,VWS V14.01,2013-05-23 01:16:00,
2013-05-22 21:21:00,55.3,54.2,29.74,ENE,59,0.0,0.0,96,0.00,,---,0.04,VWS V14.01,2013-05-23 01:21:00,
2013-05-22 21:26:00,55.1,54.0,29.74,NE,56,0.0,0.0,96,0.00,,---,0.04,VWS V14.01,2013-05-23 01:26:00,
2013-05-22 21:31:00,55.1,54.0,29.75,NE,53,0.0,0.0,96,0.00,,---,0.04,VWS V14.01,2013-05-23 01:31:00,
2013-05-22 21:36:00,55.0,53.9,29.75,NE,38,0.0,0.0,96,0.00,,---,0.04,VWS V14.01,2013-05-23 01:36:00,
2013-05-22 21:41:00,54.8,53.7,29.75,ENE,60,0.0,0.0,96,0.00,,---,0.04,VWS V14.01,2013-05-23 01:41:00,
2013-05-22 21:46:00,54.5,53.4,29.75,NE,45,0.0,0.0,96,0.00,,---,0.04,VWS V14.01,2013-05-23 01:46:00,
2013-05-22 21:51:00,54.4,53.3,29.75,East,83,0.0,0.0,96,0.00,,---,0.04,VWS V14.01,2013-05-23 01:51:00,
2013-05-22 21:56:00,54.2,53.1,29.75,NE,42,0.0,0.0,96,0.00,,---,0.04,VWS V14.01,2013-05-23 01:56:00,
2013-05-22 22:01:00,54.2,53.1,29.75,NE,46,0.0,0.0,96,0.00,,---,0.04,VWS V14.01,2013-05-23 02:01:00,
2013-05-22 22:06:00,54.1,53.0,29.76,ENE,57,0.0,0.0,96,0.00,,---,0.04,VWS V14.01,2013-05-23 02:06:00,
2013-05-22 22:11:00,53.9,52.8,29.76,NE,40,0.0,0.0,96,0.00,,---,0.04,VWS V14.01,2013-05-23 02:11:00,
2013-05-22 22:17:00,53.9,52.8,29.76,ENE,59,0.0,0.0,96,0.00,,---,0.04,VWS V14.01,2013-05-23 02:17:00,
2013-05-22 22:22:00,53.8,52.7,29.76,NE,40,0.0,0.0,96,0.00,,---,0.04,VWS V14.01,2013-05-23 02:22:00,
2013-05-22 22:27:00,53.6,52.5,29.76,NE,55,0.0,0.0,96,0.00,,---,0.04,VWS V14.01,2013-05-23 02:27:00,
2013-05-22 22:32:00,53.6,52.5,29.76,NE,43,0.0,0.0,96,0.00,,---,0.04,VWS V14.01,2013-05-23 02:32:00,
2013-05-22 22:37:00,53.6,52.5,29.77,ENE,76,0.0,0.0,96,0.00,,---,0.04,VWS V14.01,2013-05-23 02:37:00,
2013-05-22 22:42:00,53.6,52.5,29.77,NE,49,0.0,0.0,96,0.00,,---,0.04,VWS V14.01,2013-05-23 02:42:00,
2013-05-22 22:47:00,53.5,52.4,29.77,ENE,60,0.0,0.0,96,0.00,,---,0.04,VWS V14.01,2013-05-23 02:47:00,
2013-05-22 22:52:00,53.5,52.4,29.77,NE,42,0.0,0.0,96,0.00,,---,0.04,VWS V14.01,2013-05-23 02:52:00,
2013-05-22 22:57:00,53.5,52.4,29.77,NE,40,0.0,0.0,96,0.00,,---,0.04,VWS V14.01,2013-05-23 02:57:00,
2013-05-22 23:02:00,53.5,52.4,29.77,NE,40,0.0,0.0,96,0.00,,---,0.04,VWS V14.01,2013-05-23 03:02:00,
2013-05-22 23:07:00,53.5,52.4,29.77,NE,37,0.0,0.0,96,0.00,,---,0.04,VWS V14.01,2013-05-23 03:07:00,
2013-05-22 23:12:00,53.3,52.2,29.77,NE,38,0.0,0.0,96,0.00,,---,0.04,VWS V14.01,2013-05-23 03:12:00,
2013-05-22 23:17:00,53.3,52.2,29.77,NE,41,0.0,0.0,96,0.00,,---,0.04,VWS V14.01,2013-05-23 03:17:00,
2013-05-22 23:22:00,53.3,52.2,29.77,NE,49,0.0,0.0,96,0.00,,---,0.04,VWS V14.01,2013-05-23 03:22:00,
2013-05-22 23:27:00,53.3,52.2,29.77,NE,42,0.0,0.0,96,0.00,,---,0.04,VWS V14.01,2013-05-23 03:27:00,
2013-05-22 23:32:00,53.3,52.2,29.78,NE,34,0.0,0.0,96,0.00,,---,0.04,VWS V14.01,2013-05-23 03:32:00,
2013-05-22 23:37:00,53.2,52.1,29.78,NNE,13,0.0,0.0,96,0.00,,---,0.04,VWS V14.01,2013-05-23 03:37:00,
2013-05-22 23:42:00,53.2,52.1,29.78,ENE,59,0.0,0.0,96,0.00,,---,0.04,VWS V14.01,2013-05-23 03:42:00,
2013-05-22 23:47:00,53.2,52.1,29.78,ENE,72,0.0,0.0,96,0.00,,---,0.04,VWS V14.01,2013-05-23 03:47:00,
2013-05-22 23:52:00,53.2,52.1,29.78,NE,49,0.0,0.0,96,0.00,,---,0.04,VWS V14.01,2013-05-23 03:52:00,
2013-05-22 23:57:00,53.2,52.1,29.78,NE,44,0.0,0.0,96,0.00,,---,0.04,VWS V14.01,2013-05-23 03:57:00,